STARLINK-5199, 54201

Orbit data source: Space-Track

STARLINK-5199, 54201 is a payload satellite owned by SpaceX/Seattle (US) in LEO that was launched on Fri, 28 Oct 2022 UTC via an FALCON 9 launch vehicle from the Air Force Western Test Range (AFWTR). Payload-class satellites include a variety of spacecraft equipped with specific instruments for various scientific and technological missions. These include communications satellites like Starlink; space stations such as the ISS; scientific satellites like the Hubble; Earth observation satellites from companies like Planet Labs, Umbra, and HawkEye 360; GPS; miniature CubeSats for education and research; and military/defense satellites.

Loading next visibility...
Identifier
54201, 2022-141AW
Orbit
LEO
Country
Flag of USUS
Related business
Manufacturer
SpaceX/Seattle
Mission
Operational Commercial Communications
Bus & Motor
STARLINK, Unknown motor
Mass
305 kg wet, ~290 kg dry
Launch date (UTC)
2022-10-28 (4 years ago)
Launch vehicle
FALCON 9
Launch site
Air Force Western Test Range (AFWTR)
Object type
Payload
Rocket body
Debris
Shape & HBR
Box + 1 Pan, 10.1 m
Radar Cross Section
13.562 m², Large (>1 m²)

Expand to show TLE details & history
Last TLE update: 2 days ago

TLE from 2 days ago
0 STARLINK-5199
1 54201U 22141AW  26171.40015534  .00000098  00000-0  24274-4 0  9991
2 54201  53.1605 252.9143 0000873  67.8070 292.3014 15.08827761201500
Epoch: 2026-06-20T09:36Z
TLE epoch observation values (Epoch: 2026-06-20T09:36:13.421Z)
Latitude
-0.00001°
Longitude
-159.75696°
Altitude
540.443 km
Speed
7.593 km/s
True Right ascension
16h 51m 39s
True Declination
0° 00' 00"
Sunlit
Object was in full shadow at epoch
Visualization orbit readout
Latitude
Unknown
Longitude
Unknown
Altitude
Unknown
Speed
Unknown
Apparent Right ascension
Unknown
Apparent Declination
Unknown
Sunlit
N/A
Visualization observer readout
Local Sidereal Time
21:25:55
Azimuth
Unknown
Elevation
Unknown
Doppler factor
Unknown
Orbital elements
Apogee altitude
540.639 km
Perigee altitude
539.431 km
Semi-major axis
6,918.172 km
Eccentricity
0.00009
Inclination
53.1605°
RAAN
252.9143°
Arg. of periapsis
67.807°
True anomaly
292.29214°
Mean anomaly
292.3014°
Eccentric anomaly
292.29677°
Mean motion
3.77187 °/min
Orbital period
95.44 mins
BSTAR
0.000024274
Loading maneuver chart data...
Computing Atmospheric mass density...
Loading historical data...
Loading historical data...
Loading historical data...
Loading historical data...
Loading historical data...
Loading historical data...
Loading historical data...

Documentation

Showing up to 5 results
|